Meath Environmental Platform

Observations for Trim Market St

Time AQI Temp °C Hum % Pres Pa CO μg/m³ H₂S μg/m³ NO μg/m³ NO₂ μg/m³ O₃ μg/m³ SO₂ μg/m³ PM1 μg/m³ PM2.5 μg/m³ PM10 μg/m³
Tuesday 25 August 2026
21:37 3 16.9 82 2,147,483,647 0.29 0 1.6 34.75 37.88 0 9.98 11.9 18.13
21:35 3 16.9 82 2,147,483,647 0.31 0 1.45 26.87 33.63 0 7.13 7.68 12
21:31 3 16.9 81 2,147,483,647 0.3 0 1.34 27.82 34.19 0 9.26 11.44 18.71
21:30 3 16.9 81 2,147,483,647 0.29 0 1.34 25.32 36.58 0 6.41 7.22 12.01
21:29 3 16.9 81 2,147,483,647 0.31 0 1.33 29.43 30.02 0 9.26 10.04 15.37
21:28 3 16.9 81 2,147,483,647 0.3 0 1.4 37.89 22.9 0 6.41 9.11 14.25
21:27 3 16.9 81 2,147,483,647 0.29 0 1.49 24.32 39.08 0 7.84 8.64 14.25
21:26 3 16.9 81 2,147,483,647 0.3 0 1.49 28.81 34.31 0 7.84 10.53 15.38
21:25 3 16.9 81 2,147,483,647 0.28 0 1.69 25.27 37.88 0 6.41 7.7 12.02
21:24 3 16.9 81 2,147,483,647 0.31 0 1.7 27.74 33.23 0 7.13 7.7 12.02
21:23 3 16.9 81 2,147,483,647 0.39 0 1.67 35.39 26.74 0 8.55 9.41 12.02
21:22 3 16.9 81 2,147,483,647 0.26 0 1.7 27.17 34.85 0 7.13 7.72 12.03
21:21 3 16.9 81 2,147,483,647 0.26 0 1.56 31.38 41.46 0 6.41 7.72 11.47
21:20 3 17 81 2,147,483,647 0.25 0 1.43 27.09 34.99 0 4.28 5.36 8.66
21:19 3 16.9 81 2,147,483,647 0.27 0 1.33 27.4 34.3 0 5.7 6.31 9.78
21:18 3 17 81 2,147,483,647 0.26 0 1.38 23.83 44.57 0 5.7 7.73 12.6
21:15 3 17 80 2,147,483,647 0.3 0 4.1 36.34 28.24 0 6.41 8.21 12.05
21:14 3 17 80 2,147,483,647 0.43 0 4.81 52.71 6.67 0 7.13 9.63 13.74
21:11 3 17 80 2,147,483,647 0.3 0 1.66 42.38 20.08 0 6.41 8.23 13.75
21:10 3 17 80 2,147,483,647 0.33 0 1.22 29.09 32.29 0 6.41 8.7 16.02